TimeEDT,TemperatureF,Dew PointF,Humidity,Sea Level PressureIn,VisibilityMPH,Wind Direction,Wind SpeedMPH,Gust SpeedMPH,PrecipitationIn,Events,Conditions,WindDirDegrees,DateUTC
12:53 AM,66.0,62.1,87,29.94,6.0,Calm,Calm,-,N/A,,Clear,0,2013-08-03 04:53:00
1:53 AM,64.9,61.0,87,29.96,5.0,WSW,3.5,-,N/A,,Clear,250,2013-08-03 05:53:00
2:53 AM,63.0,60.1,90,29.96,3.0,West,3.5,-,N/A,,Clear,270,2013-08-03 06:53:00
3:00 AM,62.6,59.0,88,29.97,2.5,WSW,4.6,-,N/A,,Clear,250,2013-08-03 07:00:00
3:14 AM,62.6,60.8,94,29.97,3.0,West,4.6,-,N/A,,Clear,280,2013-08-03 07:14:00
3:26 AM,62.6,60.8,94,29.97,2.5,West,4.6,-,N/A,,Clear,260,2013-08-03 07:26:00
3:53 AM,61.0,59.0,93,29.97,2.5,WSW,5.8,-,N/A,,Clear,240,2013-08-03 07:53:00
4:23 AM,60.8,57.2,88,29.98,1.5,Calm,Calm,-,N/A,,Clear,0,2013-08-03 08:23:00
4:35 AM,62.6,59.0,88,29.98,1.2,West,5.8,-,N/A,,Scattered Clouds,280,2013-08-03 08:35:00
4:53 AM,61.0,57.9,90,29.98,1.2,Calm,Calm,-,N/A,,Partly Cloudy,0,2013-08-03 08:53:00
4:59 AM,60.8,57.2,88,29.98,2.0,Calm,Calm,-,N/A,,Partly Cloudy,0,2013-08-03 08:59:00
5:06 AM,60.8,57.2,88,29.99,1.2,WNW,3.5,-,N/A,,Partly Cloudy,290,2013-08-03 09:06:00
5:10 AM,62.6,60.8,94,29.99,1.0,West,4.6,-,N/A,,Mist,280,2013-08-03 09:10:00
5:19 AM,62.6,60.8,94,29.99,0.2,West,4.6,-,N/A,Fog,Fog,280,2013-08-03 09:19:00
5:34 AM,60.8,59.0,94,29.99,0.5,West,3.5,-,N/A,Fog,Fog,280,2013-08-03 09:34:00
5:44 AM,62.6,60.8,94,29.99,0.2,West,3.5,-,N/A,Fog,Fog,280,2013-08-03 09:44:00
5:53 AM,62.1,60.1,93,29.98,0.2,WNW,3.5,-,N/A,Fog,Fog,290,2013-08-03 09:53:00
6:12 AM,60.8,59.0,94,29.99,0.1,Calm,Calm,-,N/A,Fog,Fog,0,2013-08-03 10:12:00
6:53 AM,59.0,57.9,96,30.00,0.1,Calm,Calm,-,N/A,Fog,Fog,0,2013-08-03 10:53:00
7:53 AM,60.1,59.0,96,30.00,0.1,Calm,Calm,-,N/A,Fog,Fog,0,2013-08-03 11:53:00
8:06 AM,60.8,59.0,94,30.01,0.1,Calm,Calm,-,N/A,Fog,Fog,0,2013-08-03 12:06:00
8:27 AM,62.6,60.8,94,30.02,1.0,North,3.5,-,N/A,,Scattered Clouds,360,2013-08-03 12:27:00
8:37 AM,62.6,60.8,94,30.02,3.0,Calm,Calm,-,N/A,,Scattered Clouds,0,2013-08-03 12:37:00
8:53 AM,63.0,60.1,90,30.02,6.0,North,3.5,-,N/A,,Scattered Clouds,350,2013-08-03 12:53:00
9:53 AM,69.1,55.9,63,30.02,10.0,NE,4.6,-,N/A,,Scattered Clouds,40,2013-08-03 13:53:00
10:53 AM,72.0,55.9,57,30.03,10.0,NNE,5.8,-,N/A,,Scattered Clouds,30,2013-08-03 14:53:00
11:53 AM,73.9,55.0,52,30.04,10.0,WNW,8.1,-,N/A,,Scattered Clouds,290,2013-08-03 15:53:00
12:53 PM,75.9,51.1,42,30.04,10.0,Variable,6.9,-,N/A,,Mostly Cloudy,0,2013-08-03 16:53:00
1:53 PM,77.0,51.1,40,30.04,10.0,NW,13.8,18.4,N/A,,Mostly Cloudy,310,2013-08-03 17:53:00
2:53 PM,75.9,50.0,40,30.04,10.0,WNW,9.2,-,N/A,,Mostly Cloudy,300,2013-08-03 18:53:00
3:53 PM,79.0,53.1,40,30.04,10.0,WNW,12.7,19.6,N/A,,Mostly Cloudy,290,2013-08-03 19:53:00
4:53 PM,79.0,52.0,39,30.04,10.0,NW,13.8,20.7,N/A,,Mostly Cloudy,310,2013-08-03 20:53:00
5:53 PM,75.9,50.0,40,30.04,10.0,NW,12.7,-,N/A,,Scattered Clouds,320,2013-08-03 21:53:00
6:53 PM,75.9,48.9,38,30.04,10.0,WNW,12.7,18.4,N/A,,Scattered Clouds,300,2013-08-03 22:53:00
7:53 PM,73.0,51.1,46,30.05,10.0,NNW,11.5,-,N/A,,Partly Cloudy,340,2013-08-03 23:53:00
8:53 PM,69.1,48.9,49,30.06,10.0,NNW,5.8,-,N/A,,Partly Cloudy,340,2013-08-04 00:53:00
9:53 PM,66.9,50.0,54,30.07,10.0,NNW,5.8,-,N/A,,Scattered Clouds,340,2013-08-04 01:53:00
10:53 PM,64.9,50.0,58,30.09,10.0,NNW,5.8,-,N/A,,Clear,330,2013-08-04 02:53:00
11:53 PM,64.0,51.1,63,30.09,10.0,Calm,Calm,-,N/A,,Clear,0,2013-08-04 03:53:00